This demonstration page uses our WeatherBlox Daily Observations layout. Learn more.

Left ArrowRight Arrow

Hourly Observations for November 29, 2019

Temp ( °F °C ) Dew Point ( °F °C ) Humidity (%) Winds ( mph kmh ) Pressure ( in mb ) Visibility ( mi km ) Precip ( " mm )
12:53 am 00:53 Clear 39 3.9 28 -2.2 65 65 NNW 6 9 29.60 1002 10 16 0.00 0.00
1:53 am 01:53 Clear 40 4.4 27 -2.8 60 60 NNW 6 9 29.61 1003 10 16 0.00 0.00
2:53 am 02:53 Clear 39 3.9 26 -3.3 60 60 NNW 6 9 29.62 1003 10 16 0.00 0.00
3:53 am 03:53 Clear 40 4.4 26 -3.3 58 58 NNW 7 11 29.63 1003 10 16 0.00 0.00
4:53 am 04:53 Clear 38 3.3 26 -3.3 62 62 NNW 5 7 29.64 1004 10 16 0.00 0.00
5:53 am 05:53 Clear 39 3.9 25 -3.9 57 57 N 6 9 29.66 1005 10 16 0.00 0.00
6:53 am 06:53 Clear 30 -1.1 27 -2.8 88 88 Calm 29.69 1005 10 16 0.00 0.00
7:53 am 07:53 Sunny 31 -0.6 27 -2.8 85 85 Calm 29.72 1007 10 16 0.00 0.00
8:53 am 08:53 Sunny 37 2.8 28 -2.2 70 70 Calm 29.77 1008 10 16 0.00 0.00
9:53 am 09:53 Partly Cloudy 43 6.1 26 -3.3 51 51 NNE 9 15 29.79 1009 10 16 0.00 0.00
10:53 am 10:53 Partly Cloudy 44 6.7 28 -2.2 53 53 E 5 7 29.80 1009 10 16 0.00 0.00
11:00 am 11:00 Cloudy 44 6.7 29 -1.7 55 55 E 6 9 29.81 1010 10 16 0.00 0.00
11:36 am 11:36 Partly Cloudy 46 7.8 32 0 58 58 VRB 5 7 29.83 1010 10 16 0.00 0.00
11:53 am 11:53 Sunny 45 7.2 32 0 61 61 E 7 11 29.81 1010 10 16 0.00 0.00
12:53 pm 12:53 Sunny 46 7.8 34 1.1 63 63 Calm 29.80 1009 10 16 0.00 0.00
1:53 pm 13:53 Partly Cloudy 47 8.3 34 1.1 61 61 S 7 11 29.82 1010 10 16 0.00 0.00
2:53 pm 14:53 Mostly Cloudy 48 8.9 33 0.6 56 56 SE 5 7 29.83 1010 10 16 0.00 0.00
3:53 pm 15:53 Sunny 47 8.3 33 0.6 59 59 SSE 3 6 29.85 1011 10 16 0.00 0.00
4:53 pm 16:53 Clear 45 7.2 34 1.1 66 66 SE 5 7 29.87 1012 10 16 0.00 0.00
5:53 pm 17:53 Clear 41 5 34 1.1 76 76 Calm 29.90 1013 10 16 0.00 0.00
6:53 pm 18:53 Mostly Cloudy 39 3.9 34 1.1 82 82 Calm 29.93 1014 10 16 0.00 0.00
7:53 pm 19:53 Mostly Clear 37 2.8 33 0.6 86 86 NNE 5 7 29.95 1014 8 13 0.00 0.00
8:53 pm 20:53 Cloudy 37 2.8 33 0.6 86 86 Calm 29.99 1016 10 16 0.00 0.00
9:01 pm 21:01 Cloudy with Mist and Fog 37 2.8 34 1.1 89 89 Calm 30.01 1016 6 10 0.00 0.00
9:53 pm 21:53 Mostly Cloudy with Mist and Fog 38 3.3 34 1.1 86 86 Calm 30.01 1016 6 10 0.00 0.00
10:53 pm 22:53 Clear with Mist and Fog 36 2.2 32 0 86 86 Calm 30.01 1016 6 10 0.00 0.00
11:53 pm 23:53 Clear 37 2.8 33 0.6 86 86 N 5 7 30.01 1016 8 13 0.00 0.00

Powered by AerisWeather